GW1480 Weather Reports


Display with metric or nautical units.
time (UTC)temp
F
wind
direction
speed
MPH
gust
MPH
rain 1hr
in
rain 24hr
in
rain mn
in
humidity
%
barometer
mb
20260904155121 89 261 0.0 0.0 0.00 0.00 0.00 76 1016.9
20260904154702 89 261 0.0 0.0 0.00 0.00 0.00 76 1016.9
20260904154247 89 261 0.0 0.0 0.00 0.00 0.00 76 1016.9
20260904153815 89 261 0.0 0.0 0.00 0.00 0.00 76 1016.9
20260904153358 89 147 0.0 0.0 0.00 0.00 0.00 72 1016.9
20260904152941 88 285 0.0 0.0 0.00 0.00 0.00 79 1016.9
20260904152455 88 254 4.0 5.0 0.00 0.00 0.00 77 1016.9
20260904152039 88 242 0.0 0.0 0.00 0.00 0.00 81 1017.2
20260904151619 88 184 0.0 0.0 0.00 0.00 0.00 75 1016.9
20260904151201 88 217 0.0 0.0 0.00 0.00 0.00 76 1016.9
20260904150745 88 202 0.0 0.0 0.00 0.00 0.00 77 1016.9
20260904150328 87 218 0.0 0.0 0.00 0.00 0.00 80 1016.9
20260904145911 87 213 0.0 0.0 0.00 0.00 0.00 79 1016.9
20260904145438 87 216 0.0 0.0 0.00 0.00 0.00 79 1016.5
20260904144536 86 224 0.0 0.0 0.00 0.00 0.00 77 1016.9
20260904143645 86 227 0.0 0.0 0.00 0.00 0.00 80 1016.5
20260904142757 85 232 1.0 5.0 0.00 0.00 0.00 85 1016.9
20260904142342 85 212 0.0 0.0 0.00 0.00 0.00 83 1016.9
20260904141910 84 215 0.0 0.0 0.00 0.00 0.00 83 1016.9
20260904141454 84 211 0.0 0.0 0.00 0.00 0.00 85 1016.9
20260904141039 83 207 0.0 0.0 0.00 0.00 0.00 84 1016.9
20260904140624 83 197 0.0 0.0 0.00 0.00 0.00 84 1016.5
20260904140208 82 235 0.0 0.0 0.00 0.00 0.00 85 1016.5
20260904135750 82 224 0.0 0.0 0.00 0.00 0.00 89 1016.2
20260904135332 81 221 0.0 0.0 0.00 0.00 0.00 89 1016.5
20260904134914 81 217 0.0 0.0 0.00 0.00 0.00 90 1016.5
20260904134459 80 228 0.0 0.0 0.00 0.00 0.00 93 1016.5
20260904134010 80 221 0.0 0.0 0.00 0.00 0.00 92 1016.5
20260904133555 80 228 0.0 0.0 0.00 0.00 0.00 94 1016.9
20260904133138 79 227 0.0 0.0 0.00 0.00 0.00 93 1016.9
20260904132721 78 221 0.0 0.0 0.00 0.00 0.00 95 1016.9
20260904132251 78 208 0.0 0.0 0.00 0.00 0.00 95 1016.9
20260904131834 77 230 0.0 0.0 0.00 0.00 0.00 96 1016.9
20260904131403 76 131 0.0 0.0 0.00 0.00 0.00 95 1016.9
20260904130946 75 231 0.0 0.0 0.00 0.00 0.00 97 1016.9
20260904130514 75 148 0.0 0.0 0.00 0.00 0.00 98 1016.5
20260904130100 74 101 0.0 0.0 0.00 0.00 0.00 99 1016.5
20260904125628 74 210 0.0 0.0 0.00 0.00 0.00 99 1016.5
20260904125212 73 244 0.0 0.0 0.00 0.00 0.00 99 1016.9
20260904124757 73 218 0.0 0.0 0.00 0.00 0.00 99 1017.2
20260904124325 73 223 0.0 0.0 0.00 0.00 0.00 99 1017.2
20260904123854 72 163 0.0 0.0 0.00 0.00 0.00 99 1017.2
20260904123423 72 230 0.0 0.0 0.00 0.00 0.00 99 1016.9
20260904123009 72 221 0.0 0.0 0.00 0.00 0.00 99 1017.2
20260904122110 71 233 0.0 0.0 0.00 0.00 0.00 99 1016.9
20260904121655 71 236 0.0 0.0 0.00 0.00 0.00 99 1016.9
20260904121242 71 235 0.0 0.0 0.00 0.00 0.00 99 1016.9
20260904120825 71 227 0.0 0.0 0.00 0.00 0.00 99 1016.9
20260904120409 71 224 0.0 0.0 0.00 0.00 0.00 99 1016.9
20260904115952 70 230 0.0 0.0 0.00 0.00 0.00 99 1016.5
20260904115539 70 220 0.0 0.0 0.00 0.00 0.00 99 1016.9
20260904115125 70 226 0.0 0.0 0.00 0.00 0.00 99 1016.5
20260904114709 70 234 0.0 0.0 0.00 0.00 0.00 99 1016.9
20260904114253 70 234 0.0 0.0 0.00 0.00 0.00 99 1016.9
20260904113823 70 240 0.0 0.0 0.00 0.00 0.00 99 1016.9
20260904113408 70 235 0.0 0.0 0.00 0.00 0.00 99 1016.9
20260904112952 70 226 0.0 0.0 0.00 0.00 0.00 99 1016.5
20260904112537 70 230 0.0 0.0 0.00 0.00 0.00 99 1016.5
20260904112122 70 182 0.0 0.0 0.00 0.00 0.00 99 1016.5
20260904111705 70 226 0.0 0.0 0.00 0.00 0.00 99 1016.5
20260904111249 70 214 0.0 0.0 0.00 0.00 0.00 99 1016.2
20260904110834 70 238 0.0 0.0 0.00 0.00 0.00 99 1016.5
20260904110417 70 237 0.0 0.0 0.00 0.00 0.00 99 1016.5
20260904105516 70 230 0.0 0.0 0.00 0.00 0.00 99 1016.2
20260904105059 70 227 0.0 0.0 0.00 0.00 0.00 99 1016.2
20260904104628 70 224 0.0 0.0 0.00 0.00 0.00 99 1016.2
20260904104214 70 225 0.0 0.0 0.00 0.00 0.00 99 1016.2
20260904103312 70 211 0.0 0.0 0.00 0.00 0.00 99 1016.2
20260904102857 70 234 0.0 0.0 0.00 0.00 0.00 99 1016.2
20260904102426 70 234 0.0 0.0 0.00 0.00 0.00 99 1016.2
20260904102010 70 234 0.0 0.0 0.00 0.00 0.00 99 1016.2
20260904101555 70 236 0.0 0.0 0.00 0.00 0.00 99 1016.5
20260904101140 70 230 0.0 0.0 0.00 0.00 0.00 99 1016.2
20260904100725 70 222 0.0 0.0 0.00 0.00 0.00 99 1016.2
20260904100310 70 226 0.0 0.0 0.00 0.00 0.00 99 1016.2
20260904095823 70 216 0.0 0.0 0.00 0.00 0.00 99 1016.2
20260904095408 70 222 0.0 0.0 0.00 0.00 0.00 99 1016.2
20260904094951 70 212 0.0 0.0 0.00 0.00 0.00 99 1016.2
20260904094538 70 216 0.0 0.0 0.00 0.00 0.00 99 1016.2
20260904093634 70 215 0.0 0.0 0.00 0.00 0.00 99 1016.2
20260904093200 70 226 0.0 0.0 0.00 0.00 0.00 99 1016.2
20260904092728 70 223 0.0 0.0 0.00 0.00 0.00 99 1016.2
20260904091813 70 210 0.0 0.0 0.00 0.00 0.00 99 1015.9
20260904091327 70 228 0.0 0.0 0.00 0.00 0.00 99 1016.2
20260904090912 70 233 0.0 0.0 0.00 0.00 0.00 99 1015.9
20260904090457 70 229 0.0 0.0 0.00 0.00 0.00 99 1015.9
20260904090042 70 226 0.0 0.0 0.00 0.00 0.00 99 1015.5
20260904085627 70 227 0.0 0.0 0.00 0.00 0.00 99 1015.9
20260904085212 70 220 0.0 0.0 0.00 0.00 0.00 99 1015.9
20260904084325 69 220 0.0 0.0 0.00 0.00 0.00 99 1015.9
20260904083440 69 226 0.0 0.0 0.00 0.00 0.00 99 1015.5
20260904083025 69 229 0.0 0.0 0.00 0.00 0.00 99 1015.9
20260904082139 69 232 0.0 0.0 0.00 0.00 0.00 99 1015.9
20260904081254 70 232 0.0 0.0 0.00 0.00 0.00 99 1015.5
20260904080410 70 232 0.0 0.0 0.00 0.00 0.00 99 1015.5
20260904075938 70 227 0.0 0.0 0.00 0.00 0.00 99 1015.9
20260904075522 70 231 0.0 0.0 0.00 0.00 0.00 99 1015.9
20260904075106 70 231 0.0 0.0 0.00 0.00 0.00 99 1015.9
20260904074650 70 227 0.0 0.0 0.00 0.00 0.00 99 1015.5
20260904072900 70 235 0.0 0.0 0.00 0.00 0.00 99 1015.9
20260904072446 70 235 0.0 0.0 0.00 0.00 0.00 99 1015.9
20260904072032 70 237 0.0 0.0 0.00 0.00 0.00 99 1015.9
20260904071616 70 237 0.0 0.0 0.00 0.00 0.00 99 1015.9
20260904071158 70 238 0.0 0.0 0.00 0.00 0.00 99 1015.5
20260904070744 70 234 0.0 0.0 0.00 0.00 0.00 99 1015.9
20260904070327 70 234 0.0 0.0 0.00 0.00 0.00 99 1015.9
20260904065912 70 235 0.0 0.0 0.00 0.00 0.00 99 1015.9
20260904065441 70 235 0.0 0.0 0.00 0.00 0.00 99 1015.9
20260904065024 70 238 0.0 0.0 0.00 0.00 0.00 99 1015.5
20260904064607 71 235 0.0 0.0 0.00 0.00 0.00 99 1015.9
20260904064149 71 244 0.0 0.0 0.00 0.00 0.00 99 1016.2
20260904063733 71 237 0.0 0.0 0.00 0.00 0.00 99 1016.2
20260904062830 71 222 0.0 0.0 0.00 0.00 0.00 99 1016.2
20260904062415 71 233 0.0 0.0 0.00 0.00 0.00 99 1015.9
20260904061959 71 235 0.0 0.0 0.00 0.00 0.00 99 1015.9
20260904061544 71 235 0.0 0.0 0.00 0.00 0.00 99 1016.2
20260904061129 71 242 0.0 0.0 0.00 0.00 0.00 99 1015.9
20260904060657 71 244 0.0 0.0 0.00 0.00 0.00 99 1016.2
20260904055811 71 226 0.0 0.0 0.00 0.00 0.00 99 1016.2
20260904055356 71 229 0.0 0.0 0.00 0.00 0.00 99 1016.2
20260904054925 71 219 0.0 0.0 0.00 0.00 0.00 99 1016.5
20260904054509 71 234 0.0 0.0 0.00 0.00 0.00 99 1016.5
20260904053607 71 240 0.0 0.0 0.00 0.00 0.00 99 1016.5
20260904052721 71 229 0.0 0.0 0.00 0.00 0.00 99 1016.5
20260904052139 71 230 0.0 0.0 0.00 0.00 0.00 99 1016.2
20260904051541 71 233 0.0 0.0 0.00 0.00 0.00 99 1016.5
20260904050337 71 234 0.0 0.0 0.00 0.00 0.00 99 1016.5
20260904045739 72 247 0.0 0.0 0.00 0.00 0.00 99 1016.2
20260904045117 72 231 0.0 0.0 0.00 0.00 0.00 99 1016.2
20260904044508 72 233 0.0 0.0 0.00 0.00 0.00 99 1016.2
20260904043947 72 232 0.0 0.0 0.00 0.00 0.00 99 1016.5
20260904043315 72 232 0.0 0.0 0.00 0.00 0.00 99 1016.5
20260904042106 72 244 0.0 0.0 0.00 0.00 0.00 99 1016.2
20260904041546 72 233 0.0 0.0 0.00 0.00 0.00 99 1016.2
20260904040937 72 232 0.0 0.0 0.00 0.00 0.00 99 1016.5
20260904040322 73 232 0.0 0.0 0.00 0.00 0.00 99 1016.2
20260904035721 73 233 0.0 0.0 0.00 0.00 0.00 99 1016.2
20260904035147 73 235 0.0 0.0 0.00 0.00 0.00 99 1016.5
20260904034512 73 229 0.0 0.0 0.00 0.00 0.00 99 1016.2
20260904033348 73 237 0.0 0.0 0.00 0.00 0.00 99 1016.5
20260904032711 73 232 0.0 0.0 0.00 0.00 0.00 99 1016.2
20260904031525 73 232 0.0 0.0 0.00 0.00 0.00 99 1016.2
20260904030349 73 231 0.0 0.0 0.00 0.00 0.00 99 1016.5
20260904025749 73 227 0.0 0.0 0.00 0.00 0.00 99 1016.5
20260904025117 73 232 0.0 0.0 0.00 0.00 0.00 99 1016.5
20260904024522 73 232 0.0 0.0 0.00 0.00 0.00 99 1016.2
20260904023913 73 245 0.0 0.0 0.00 0.00 0.00 99 1016.5
20260904023327 73 233 0.0 0.0 0.00 0.00 0.00 99 1016.5
20260904022749 73 233 0.0 0.0 0.00 0.00 0.00 99 1016.5
20260904022113 73 234 0.0 0.0 0.00 0.00 0.00 99 1016.2
20260904021516 73 235 0.0 0.0 0.00 0.00 0.00 99 1016.5
20260904020922 74 237 0.0 0.0 0.00 0.00 0.00 99 1016.5
20260904020329 74 229 0.0 0.0 0.00 0.00 0.00 99 1016.5
20260904015747 74 233 0.0 0.0 0.00 0.00 0.00 99 1016.2
20260904015110 74 235 0.0 0.0 0.00 0.00 0.00 99 1016.5
20260904014550 74 235 0.0 0.0 0.00 0.00 0.00 99 1016.2
20260904013945 74 234 0.0 0.0 0.00 0.00 0.00 99 1016.2
20260904013321 74 234 0.0 0.0 0.00 0.00 0.00 99 1016.2
20260904012716 75 234 0.0 0.0 0.00 0.00 0.00 99 1016.2
20260904012125 75 235 0.0 0.0 0.00 0.00 0.00 99 1016.2
20260904011515 75 232 0.0 0.0 0.00 0.00 0.00 99 1016.2
20260904010320 75 228 0.0 0.0 0.00 0.00 0.00 99 1016.2
20260904005735 76 232 0.0 0.0 0.00 0.00 0.00 99 1016.2
20260904005115 76 234 0.0 0.0 0.00 0.00 0.00 99 1016.2
20260904004546 76 236 0.0 0.0 0.00 0.00 0.00 99 1016.2
20260904003911 76 234 0.0 0.0 0.00 0.00 0.00 99 1015.9
20260904003324 77 230 0.0 0.0 0.00 0.00 0.00 99 1015.9
20260904002733 77 234 0.0 0.0 0.00 0.00 0.00 99 1015.9
20260904002120 77 234 0.0 0.0 0.00 0.00 0.00 99 1015.5
20260904001507 78 240 0.0 0.0 0.00 0.00 0.00 99 1015.5
20260904000920 78 225 0.0 0.0 0.00 0.00 0.00 99 1015.5
20260904000311 78 239 0.0 0.0 0.00 0.00 0.00 99 1015.5
20260903235729 78 232 0.0 0.0 0.00 0.00 0.00 98 1015.5
20260903235134 79 236 0.0 0.0 0.00 0.00 0.00 98 1015.9
20260903234549 79 240 0.0 0.0 0.00 0.00 0.00 97 1015.9
20260903233921 80 243 0.0 0.0 0.00 0.00 0.00 97 1015.5
20260903233348 80 237 0.0 0.0 0.00 0.00 0.00 96 1015.2
20260903232711 80 234 0.0 0.0 0.00 0.00 0.00 96 1015.5
20260903232111 81 233 0.0 0.0 0.00 0.00 0.00 96 1015.5
20260903231545 82 239 0.0 0.0 0.00 0.00 0.00 95 1015.2
20260903230912 82 234 0.0 0.0 0.00 0.00 0.00 95 1015.5
20260903230333 83 237 0.0 0.0 0.00 0.00 0.00 95 1015.2
20260903225727 84 249 0.0 0.0 0.00 0.00 0.00 95 1015.2
20260903225135 86 237 0.0 0.0 0.00 0.00 0.00 92 1015.2
20260903224512 86 246 0.0 0.0 0.00 0.00 0.00 91 1015.2
20260903223934 87 249 0.0 0.0 0.00 0.00 0.00 89 1014.9
20260903223349 88 240 0.0 0.0 0.00 0.00 0.00 86 1014.9
20260903222714 88 251 0.0 0.0 0.00 0.00 0.00 84 1014.5
20260903221520 89 244 0.0 0.0 0.00 0.00 0.00 83 1014.9
20260903220942 89 243 0.0 0.0 0.00 0.00 0.00 82 1014.5
20260903220317 89 252 0.0 0.0 0.00 0.00 0.00 82 1014.5
20260903215722 89 244 0.0 0.0 0.00 0.00 0.00 82 1014.5
20260903215142 89 249 0.0 0.0 0.00 0.00 0.00 82 1014.5
20260903214506 89 240 0.0 0.0 0.00 0.00 0.00 80 1014.9
20260903213336 89 238 0.0 0.0 0.00 0.00 0.00 82 1014.5
20260903212722 89 233 0.0 0.0 0.00 0.00 0.00 83 1014.9
20260903212112 89 264 0.0 0.0 0.00 0.00 0.00 80 1014.9
20260903211534 89 256 0.0 0.0 0.00 0.00 0.00 80 1014.9
20260903210324 90 228 0.0 0.0 0.00 0.00 0.00 75 1015.2
20260903205707 89 249 0.0 0.0 0.00 0.00 0.00 78 1015.5
20260903205146 89 254 0.0 0.0 0.00 0.00 0.00 81 1015.5
20260903204536 90 234 0.0 0.0 0.00 0.00 0.00 76 1015.5
20260903203919 91 232 0.0 0.0 0.00 0.00 0.00 73 1015.5
20260903203310 92 232 0.0 0.0 0.00 0.00 0.00 75 1015.5
20260903202114 95 224 0.0 0.0 0.00 0.00 0.00 74 1015.9
20260903201522 96 239 0.0 0.0 0.00 0.00 0.00 69 1015.9
20260903200908 96 2 0.0 0.0 0.00 0.00 0.00 54 1015.9
20260903200344 96 258 0.0 0.0 0.00 0.00 0.00 57 1015.9
20260903195707 96 55 0.0 0.0 0.00 0.00 0.00 58 1015.9
20260903195111 95 58 0.0 0.0 0.00 0.00 0.00 56 1016.2
20260903194544 94 240 0.0 0.0 0.00 0.00 0.00 63 1016.2
20260903193947 94 91 0.0 0.0 0.00 0.00 0.00 58 1015.9
20260903192714 94 264 0.0 0.0 0.00 0.00 0.00 67 1016.2